PTEAS SNIO-SNIB

Flight info

Callsign PTEAS
Flight time 0h 58m
Altitude 4500
Route 1129S03845W 1152S03909W 1209S03944W 1216S04005W
Aircraft DA62/L-SDFGRY/C

Departure

Time 2026-04-16 12:57
Airport Cipó Airport (SNIO)

Arrival

Time 2026-04-16 13:55
Airport Itaberaba Airport (SNIB)
Time Latitude Longitude Altitude Speed Heading
2026-04-16 12:50 -11.12390 -38.49288 751 ft 0 kts 114°
2026-04-16 12:51 -11.12389 -38.49290 751 ft 2 kts 113°
2026-04-16 12:51 -11.12383 -38.49305 749 ft 2 kts 107°
2026-04-16 12:51 -11.12386 -38.49316 749 ft 0 kts 34°
2026-04-16 12:55 -11.12373 -38.49313 751 ft 4 kts 13°
2026-04-16 12:55 -11.12348 -38.49307 752 ft 4 kts 17°
2026-04-16 12:56 -11.12312 -38.49301 752 ft 5 kts 32°
2026-04-16 12:56 -11.12307 -38.49277 752 ft 0 kts 111°
2026-04-16 12:57 -11.12384 -38.49076 751 ft 59 kts 111°
2026-04-16 12:57 -11.12569 -38.48584 849 ft 85 kts 111°
2026-04-16 12:57 -11.12805 -38.47970 1024 ft 99 kts 114°
2026-04-16 12:57 -11.13054 -38.47303 1357 ft 93 kts 111°
2026-04-16 12:58 -11.13292 -38.46712 1645 ft 91 kts 113°
2026-04-16 12:58 -11.13523 -38.46114 1950 ft 92 kts 113°
2026-04-16 12:58 -11.13768 -38.45485 2026 ft 90 kts 113°
2026-04-16 12:58 -11.14002 -38.44838 2041 ft 100 kts 113°
2026-04-16 12:59 -11.14524 -38.44489 2049 ft 101 kts 186°
2026-04-16 12:59 -11.15134 -38.44951 2062 ft 122 kts 223°
2026-04-16 12:59 -11.15752 -38.45592 2044 ft 125 kts 218°
2026-04-16 13:00 -11.17035 -38.46824 2073 ft 126 kts 219°
2026-04-16 13:00 -11.17656 -38.47438 2081 ft 123 kts 218°
2026-04-16 13:00 -11.18241 -38.48054 2075 ft 124 kts 220°
2026-04-16 13:00 -11.18872 -38.48687 2288 ft 127 kts 218°
2026-04-16 13:01 -11.19496 -38.49330 2586 ft 128 kts 220°
2026-04-16 13:01 -11.20126 -38.49963 2754 ft 128 kts 219°
2026-04-16 13:01 -11.20772 -38.50583 3024 ft 127 kts 219°
2026-04-16 13:01 -11.21397 -38.51226 3279 ft 128 kts 221°
2026-04-16 13:02 -11.22042 -38.51854 3470 ft 128 kts 219°
2026-04-16 13:02 -11.22681 -38.52483 3696 ft 128 kts 219°
2026-04-16 13:02 -11.23321 -38.53126 3935 ft 130 kts 220°
2026-04-16 13:02 -11.23971 -38.53766 4164 ft 130 kts 220°
2026-04-16 13:03 -11.24626 -38.54403 4350 ft 130 kts 218°
2026-04-16 13:03 -11.25282 -38.55058 4533 ft 138 kts 220°
2026-04-16 13:03 -11.25982 -38.55743 4526 ft 134 kts 219°
2026-04-16 13:03 -11.26659 -38.56404 4540 ft 135 kts 219°
2026-04-16 13:04 -11.27344 -38.57068 4544 ft 136 kts 219°
2026-04-16 13:04 -11.28032 -38.57727 4539 ft 134 kts 219°
2026-04-16 13:04 -11.28706 -38.58392 4544 ft 137 kts 220°
2026-04-16 13:04 -11.29393 -38.59053 4542 ft 134 kts 219°
2026-04-16 13:05 -11.30068 -38.59724 4544 ft 137 kts 219°
2026-04-16 13:05 -11.30762 -38.60401 4534 ft 137 kts 219°
2026-04-16 13:05 -11.31434 -38.61052 4541 ft 131 kts 219°
2026-04-16 13:05 -11.32074 -38.61696 4531 ft 128 kts 220°
2026-04-16 13:06 -11.32724 -38.62328 4545 ft 129 kts 219°
2026-04-16 13:06 -11.33383 -38.62968 4545 ft 132 kts 219°
2026-04-16 13:06 -11.34044 -38.63617 4541 ft 131 kts 219°
2026-04-16 13:06 -11.34678 -38.64253 4535 ft 127 kts 220°
2026-04-16 13:07 -11.35304 -38.64879 4542 ft 126 kts 219°
2026-04-16 13:07 -11.35928 -38.65514 4525 ft 126 kts 219°
2026-04-16 13:07 -11.36544 -38.66135 4543 ft 125 kts 220°
2026-04-16 13:07 -11.37168 -38.66760 4535 ft 127 kts 220°
2026-04-16 13:08 -11.37794 -38.67388 4549 ft 128 kts 220°
2026-04-16 13:08 -11.38446 -38.68030 4551 ft 132 kts 219°
2026-04-16 13:08 -11.39116 -38.68695 4548 ft 136 kts 220°
2026-04-16 13:08 -11.39804 -38.69365 4552 ft 137 kts 219°
2026-04-16 13:09 -11.40493 -38.70035 4543 ft 135 kts 219°
2026-04-16 13:09 -11.41167 -38.70710 4542 ft 136 kts 219°
2026-04-16 13:09 -11.41851 -38.71386 4542 ft 137 kts 219°
2026-04-16 13:09 -11.42538 -38.72061 4539 ft 137 kts 219°
2026-04-16 13:10 -11.43224 -38.72733 4540 ft 137 kts 220°
2026-04-16 13:10 -11.43913 -38.73395 4539 ft 136 kts 220°
2026-04-16 13:10 -11.44604 -38.74051 4543 ft 136 kts 219°
2026-04-16 13:10 -11.45286 -38.74719 4521 ft 135 kts 220°
2026-04-16 13:11 -11.45955 -38.75382 4540 ft 134 kts 219°
2026-04-16 13:11 -11.46626 -38.76038 4538 ft 133 kts 219°
2026-04-16 13:11 -11.47297 -38.76688 4540 ft 133 kts 219°
2026-04-16 13:11 -11.47968 -38.77344 4526 ft 133 kts 220°
2026-04-16 13:12 -11.48612 -38.77969 4543 ft 132 kts 219°
2026-04-16 13:12 -11.49344 -38.78673 4544 ft 152 kts 219°
2026-04-16 13:12 -11.50154 -38.79439 4550 ft 166 kts 219°
2026-04-16 13:12 -11.50985 -38.80291 4541 ft 173 kts 223°
2026-04-16 13:13 -11.51811 -38.81189 4532 ft 170 kts 223°
2026-04-16 13:13 -11.52598 -38.82045 4538 ft 166 kts 223°
2026-04-16 13:13 -11.53399 -38.82925 4546 ft 168 kts 223°
2026-04-16 13:13 -11.54184 -38.83793 4543 ft 168 kts 223°
2026-04-16 13:14 -11.54978 -38.84668 4537 ft 168 kts 224°
2026-04-16 13:14 -11.55777 -38.85531 4538 ft 167 kts 223°
2026-04-16 13:14 -11.56572 -38.86391 4539 ft 167 kts 223°
2026-04-16 13:14 -11.57370 -38.87252 4539 ft 167 kts 223°
2026-04-16 13:15 -11.58164 -38.88113 4534 ft 167 kts 223°
2026-04-16 13:15 -11.58957 -38.88972 4537 ft 167 kts 223°
2026-04-16 13:15 -11.59753 -38.89836 4535 ft 167 kts 223°
2026-04-16 13:15 -11.60544 -38.90695 4538 ft 166 kts 223°
2026-04-16 13:16 -11.61339 -38.91557 4524 ft 167 kts 223°
2026-04-16 13:16 -11.62124 -38.92411 4537 ft 164 kts 224°
2026-04-16 13:16 -11.62922 -38.93246 4533 ft 164 kts 221°
2026-04-16 13:16 -11.63729 -38.94067 4545 ft 163 kts 221°
2026-04-16 13:17 -11.64537 -38.94888 4540 ft 165 kts 221°
2026-04-16 13:17 -11.65351 -38.95714 4541 ft 165 kts 221°
2026-04-16 13:17 -11.66163 -38.96546 4540 ft 165 kts 221°
2026-04-16 13:17 -11.66972 -38.97380 4538 ft 166 kts 222°
2026-04-16 13:18 -11.67784 -38.98213 4538 ft 165 kts 221°
2026-04-16 13:18 -11.68593 -38.99047 4544 ft 165 kts 221°
2026-04-16 13:18 -11.69397 -38.99868 4539 ft 164 kts 221°
2026-04-16 13:18 -11.70202 -39.00692 4543 ft 164 kts 221°
2026-04-16 13:19 -11.71008 -39.01515 4532 ft 164 kts 221°
2026-04-16 13:19 -11.71816 -39.02340 4531 ft 164 kts 221°
2026-04-16 13:19 -11.72626 -39.03159 4524 ft 164 kts 221°
2026-04-16 13:19 -11.73436 -39.03980 4522 ft 163 kts 221°
2026-04-16 13:20 -11.74242 -39.04797 4529 ft 164 kts 221°
2026-04-16 13:20 -11.75037 -39.05601 4537 ft 162 kts 221°
2026-04-16 13:20 -11.75844 -39.06409 4538 ft 163 kts 221°
2026-04-16 13:20 -11.76655 -39.07221 4536 ft 164 kts 221°
2026-04-16 13:21 -11.77468 -39.08034 4535 ft 163 kts 221°
2026-04-16 13:21 -11.78277 -39.08846 4535 ft 164 kts 221°
2026-04-16 13:21 -11.79085 -39.09665 4533 ft 163 kts 221°
2026-04-16 13:21 -11.79890 -39.10474 4530 ft 162 kts 221°
2026-04-16 13:22 -11.80696 -39.11285 4535 ft 163 kts 221°
2026-04-16 13:22 -11.81503 -39.12098 4536 ft 163 kts 221°
2026-04-16 13:22 -11.82308 -39.12908 4536 ft 162 kts 221°
2026-04-16 13:22 -11.83119 -39.13711 4535 ft 162 kts 221°
2026-04-16 13:23 -11.83928 -39.14517 4523 ft 162 kts 221°
2026-04-16 13:23 -11.84733 -39.15322 4537 ft 162 kts 221°
2026-04-16 13:23 -11.85542 -39.16130 4539 ft 164 kts 221°
2026-04-16 13:23 -11.86144 -39.17133 4533 ft 168 kts 242°
2026-04-16 13:24 -11.86638 -39.18215 4525 ft 169 kts 242°
2026-04-16 13:24 -11.87135 -39.19304 4531 ft 169 kts 242°
2026-04-16 13:24 -11.87462 -39.20026 4524 ft 169 kts 242°
2026-04-16 13:24 -11.87957 -39.21111 4528 ft 169 kts 242°
2026-04-16 13:25 -11.88451 -39.22197 4541 ft 167 kts 242°
2026-04-16 13:25 -11.88942 -39.23273 4539 ft 168 kts 242°
2026-04-16 13:25 -11.89432 -39.24347 4534 ft 167 kts 242°
2026-04-16 13:25 -11.89926 -39.25419 4523 ft 166 kts 242°
2026-04-16 13:26 -11.90420 -39.26486 4534 ft 166 kts 242°
2026-04-16 13:26 -11.90912 -39.27559 4521 ft 167 kts 242°
2026-04-16 13:26 -11.91403 -39.28635 4530 ft 169 kts 243°
2026-04-16 13:26 -11.91901 -39.29719 4537 ft 168 kts 242°
2026-04-16 13:27 -11.92429 -39.30792 4540 ft 169 kts 240°
2026-04-16 13:27 -11.92968 -39.31866 4535 ft 170 kts 240°
2026-04-16 13:27 -11.93500 -39.32944 4538 ft 171 kts 240°
2026-04-16 13:27 -11.94036 -39.34023 4529 ft 170 kts 240°
2026-04-16 13:28 -11.94569 -39.35092 4522 ft 169 kts 240°
2026-04-16 13:28 -11.95102 -39.36156 4529 ft 168 kts 240°
2026-04-16 13:28 -11.95631 -39.37213 4522 ft 166 kts 240°
2026-04-16 13:28 -11.96160 -39.38260 4519 ft 165 kts 240°
2026-04-16 13:29 -11.96679 -39.39307 4519 ft 166 kts 240°
2026-04-16 13:29 -11.97202 -39.40353 4532 ft 165 kts 240°
2026-04-16 13:29 -11.97733 -39.41394 4530 ft 166 kts 240°
2026-04-16 13:29 -11.98258 -39.42443 4533 ft 166 kts 240°
2026-04-16 13:30 -11.98777 -39.43476 4537 ft 166 kts 240°
2026-04-16 13:30 -11.99305 -39.44540 4525 ft 168 kts 240°
2026-04-16 13:30 -11.99825 -39.45603 4525 ft 167 kts 240°
2026-04-16 13:30 -12.00349 -39.46660 4525 ft 166 kts 240°
2026-04-16 13:31 -12.00874 -39.47709 4532 ft 166 kts 240°
2026-04-16 13:31 -12.01402 -39.48769 4534 ft 168 kts 240°
2026-04-16 13:31 -12.01937 -39.49838 4538 ft 169 kts 240°
2026-04-16 13:31 -12.02476 -39.50908 4536 ft 170 kts 240°
2026-04-16 13:32 -12.03018 -39.51978 4530 ft 169 kts 240°
2026-04-16 13:32 -12.03562 -39.53041 4535 ft 168 kts 240°
2026-04-16 13:32 -12.04103 -39.54101 4535 ft 168 kts 239°
2026-04-16 13:32 -12.04640 -39.55161 4535 ft 168 kts 239°
2026-04-16 13:33 -12.05178 -39.56222 4533 ft 168 kts 240°
2026-04-16 13:33 -12.05716 -39.57275 4530 ft 167 kts 240°
2026-04-16 13:33 -12.06250 -39.58332 4528 ft 167 kts 240°
2026-04-16 13:33 -12.06777 -39.59388 4534 ft 167 kts 240°
2026-04-16 13:34 -12.07306 -39.60443 4534 ft 167 kts 239°
2026-04-16 13:34 -12.07833 -39.61506 4532 ft 168 kts 240°
2026-04-16 13:34 -12.08365 -39.62566 4530 ft 167 kts 240°
2026-04-16 13:34 -12.08894 -39.63623 4528 ft 167 kts 240°
2026-04-16 13:35 -12.09418 -39.64680 4526 ft 167 kts 241°
2026-04-16 13:35 -12.09950 -39.65734 4526 ft 167 kts 239°
2026-04-16 13:35 -12.10480 -39.66790 4523 ft 167 kts 240°
2026-04-16 13:35 -12.11020 -39.67839 4529 ft 166 kts 240°
2026-04-16 13:36 -12.11556 -39.68884 4525 ft 166 kts 240°
2026-04-16 13:36 -12.12091 -39.69932 4534 ft 167 kts 240°
2026-04-16 13:36 -12.12626 -39.70988 4535 ft 168 kts 240°
2026-04-16 13:36 -12.13164 -39.72027 4544 ft 168 kts 239°
2026-04-16 13:37 -12.13713 -39.73091 4528 ft 169 kts 240°
2026-04-16 13:37 -12.14255 -39.74159 4524 ft 170 kts 240°
2026-04-16 13:37 -12.14708 -39.75279 4523 ft 171 kts 249°
2026-04-16 13:37 -12.15065 -39.76440 4532 ft 171 kts 251°
2026-04-16 13:38 -12.15422 -39.77599 4527 ft 171 kts 250°
2026-04-16 13:38 -12.15781 -39.78750 4526 ft 170 kts 249°
2026-04-16 13:38 -12.16141 -39.79895 4522 ft 168 kts 249°
2026-04-16 13:38 -12.16490 -39.81035 4523 ft 168 kts 250°
2026-04-16 13:39 -12.16845 -39.82167 4516 ft 166 kts 250°
2026-04-16 13:39 -12.17204 -39.83287 4521 ft 165 kts 250°
2026-04-16 13:39 -12.17560 -39.84407 4517 ft 165 kts 250°
2026-04-16 13:39 -12.17910 -39.85521 4521 ft 165 kts 251°
2026-04-16 13:40 -12.18270 -39.86634 4522 ft 164 kts 249°
2026-04-16 13:40 -12.18626 -39.87745 4523 ft 166 kts 249°
2026-04-16 13:40 -12.18993 -39.88862 4526 ft 167 kts 250°
2026-04-16 13:40 -12.19368 -39.89988 4532 ft 168 kts 249°
2026-04-16 13:41 -12.19745 -39.91115 4522 ft 168 kts 249°
2026-04-16 13:41 -12.20116 -39.92255 4529 ft 169 kts 249°
2026-04-16 13:41 -12.20491 -39.93393 4525 ft 169 kts 249°
2026-04-16 13:41 -12.20862 -39.94533 4524 ft 169 kts 249°
2026-04-16 13:42 -12.21231 -39.95677 4529 ft 169 kts 249°
2026-04-16 13:42 -12.21604 -39.96816 4528 ft 169 kts 249°
2026-04-16 13:42 -12.21978 -39.97931 4528 ft 168 kts 249°
2026-04-16 13:42 -12.22356 -39.99060 4524 ft 167 kts 248°
2026-04-16 13:43 -12.22731 -40.00187 4524 ft 168 kts 249°
2026-04-16 13:43 -12.23113 -40.01317 4529 ft 168 kts 249°
2026-04-16 13:43 -12.23497 -40.02442 4527 ft 167 kts 249°
2026-04-16 13:43 -12.23886 -40.03565 4525 ft 168 kts 249°
2026-04-16 13:44 -12.24270 -40.04691 4517 ft 168 kts 249°
2026-04-16 13:44 -12.24655 -40.05816 4530 ft 168 kts 249°
2026-04-16 13:44 -12.25034 -40.06946 4522 ft 169 kts 249°
2026-04-16 13:44 -12.25410 -40.08078 4533 ft 168 kts 249°
2026-04-16 13:45 -12.25792 -40.09213 4527 ft 169 kts 249°
2026-04-16 13:45 -12.26197 -40.10332 4518 ft 166 kts 238°
2026-04-16 13:45 -12.26981 -40.11170 4523 ft 162 kts 218°
2026-04-16 13:45 -12.27844 -40.11915 4525 ft 162 kts 217°
2026-04-16 13:46 -12.28708 -40.12665 4529 ft 163 kts 217°
2026-04-16 13:46 -12.29574 -40.13421 4530 ft 164 kts 217°
2026-04-16 13:46 -12.30447 -40.14169 4517 ft 164 kts 217°
2026-04-16 13:46 -12.31322 -40.14919 4526 ft 164 kts 217°
2026-04-16 13:47 -12.32198 -40.15673 4532 ft 165 kts 217°
2026-04-16 13:47 -12.33081 -40.16427 4527 ft 166 kts 217°
2026-04-16 13:47 -12.33968 -40.17179 4536 ft 166 kts 217°
2026-04-16 13:47 -12.34865 -40.17932 4484 ft 169 kts 217°
2026-04-16 13:48 -12.35788 -40.18704 4397 ft 172 kts 217°
2026-04-16 13:48 -12.36661 -40.19447 4382 ft 144 kts 217°
2026-04-16 13:48 -12.37382 -40.20065 4384 ft 133 kts 216°
2026-04-16 13:48 -12.38085 -40.20676 4247 ft 132 kts 218°
2026-04-16 13:49 -12.38608 -40.21433 4104 ft 135 kts 249°
2026-04-16 13:49 -12.38886 -40.22348 3960 ft 134 kts 250°
2026-04-16 13:49 -12.39171 -40.23257 3807 ft 134 kts 250°
2026-04-16 13:49 -12.39443 -40.24153 3665 ft 133 kts 250°
2026-04-16 13:50 -12.39719 -40.25076 3494 ft 135 kts 250°
2026-04-16 13:50 -12.40000 -40.25986 3324 ft 136 kts 249°
2026-04-16 13:50 -12.40288 -40.26908 3156 ft 136 kts 250°
2026-04-16 13:50 -12.40574 -40.27828 2981 ft 136 kts 250°
2026-04-16 13:51 -12.40863 -40.28747 2818 ft 136 kts 249°
2026-04-16 13:51 -12.41163 -40.29663 2652 ft 135 kts 250°
2026-04-16 13:51 -12.41613 -40.30481 2465 ft 130 kts 212°
2026-04-16 13:51 -12.42441 -40.30797 2304 ft 127 kts 193°
2026-04-16 13:52 -12.43300 -40.31037 2143 ft 130 kts 193°
2026-04-16 13:52 -12.44168 -40.31270 1973 ft 127 kts 192°
2026-04-16 13:52 -12.44998 -40.31499 1894 ft 118 kts 192°
2026-04-16 13:52 -12.45755 -40.31714 1882 ft 108 kts 190°
2026-04-16 13:53 -12.46447 -40.31919 1879 ft 100 kts 192°
2026-04-16 13:53 -12.47093 -40.32002 1869 ft 89 kts 154°
2026-04-16 13:53 -12.47450 -40.31573 1868 ft 75 kts 129°
2026-04-16 13:53 -12.47799 -40.31146 1753 ft 82 kts 127°
2026-04-16 13:54 -12.48124 -40.30686 1660 ft 81 kts 118°
2026-04-16 13:54 -12.48406 -40.30159 1619 ft 87 kts 120°
2026-04-16 13:54 -12.48695 -40.29609 1525 ft 86 kts 118°
2026-04-16 13:54 -12.48970 -40.29044 1387 ft 91 kts 117°
2026-04-16 13:55 -12.49255 -40.28466 1262 ft 90 kts 116°
2026-04-16 13:55 -12.49534 -40.27912 1096 ft 86 kts 117°
2026-04-16 13:55 -12.49800 -40.27390 938 ft 73 kts 115°
2026-04-16 13:55 -12.49948 -40.27092 932 ft 30 kts 116°
2026-04-16 13:56 -12.50031 -40.26928 925 ft 23 kts 118°
2026-04-16 13:56 -12.50096 -40.26825 923 ft 9 kts 182°
2026-04-16 13:56 -12.50132 -40.26842 923 ft 0 kts 194°
2026-04-16 13:57 -12.50150 -40.26844 923 ft 4 kts 213°
2026-04-16 13:57 -12.50184 -40.26847 923 ft 7 kts 137°
2026-04-16 13:58 -12.50204 -40.26813 921 ft 0 kts 122°